Location: Châteauvieux
(47.2310°N, 1.3828°E)
Time: 00:07:08
(UTC+00:00)

Tsikada Rocket - Pass Details

Date: 15 May 2026
Orbit: 956 x 1009 km, 82.9° (Epoch: 9 June)

Event Time Altitude Azimuth Distance (km) Brightness Sun altitude
Rises 20:37:42 0° 349° (N) 3,655 8.0 -10.8°
Reaches altitude 10° 20:40:13 10° 348° (NNW) 2,701 7.3 -11.1°
Maximum altitude 20:46:21 72° 265° (W) 1,004 4.2 -11.9°
Drops below altitude 10° 20:52:26 10° 182° (S) 2,683 5.9 -12.6°
Enters shadow 20:53:28 - 181° (S) 3,069 6.2 -12.7°
